TimeCDT,TemperatureF,Dew PointF,Humidity,Sea Level PressureIn,VisibilityMPH,Wind Direction,Wind SpeedMPH,Gust SpeedMPH,PrecipitationIn,Events,Conditions,WindDirDegrees,DateUTC
12:15 AM,50.0,41.0,71,29.58,10.0,ESE,13.8,18.4,N/A,,Overcast,120,2013-04-15 05:15:00
12:35 AM,50.0,41.0,71,29.57,10.0,ESE,16.1,-,N/A,,Overcast,120,2013-04-15 05:35:00
12:55 AM,51.8,41.0,67,29.57,10.0,SE,15.0,-,N/A,,Overcast,140,2013-04-15 05:55:00
1:15 AM,53.6,42.8,67,29.63,5.0,WSW,17.3,23.0,0.04,Rain,Heavy Rain,240,2013-04-15 06:15:00
1:35 AM,50.0,44.6,82,29.64,5.0,WSW,9.2,-,0.07,Rain-Thunderstorm,Thunderstorms and Rain,240,2013-04-15 06:35:00
1:55 AM,48.2,46.4,93,29.66,2.5,SW,8.1,-,0.17,Rain,Heavy Rain,220,2013-04-15 06:55:00
2:15 AM,46.4,46.4,100,29.66,3.0,WSW,8.1,-,0.05,Rain,Rain,240,2013-04-15 07:15:00
2:35 AM,46.4,46.4,100,29.66,2.5,SW,5.8,-,0.10,Rain,Rain,220,2013-04-15 07:35:00
2:55 AM,46.4,46.4,100,29.65,2.0,Calm,Calm,-,0.13,Rain,Light Rain,0,2013-04-15 07:55:00
3:15 AM,46.4,46.4,100,29.65,1.5,South,5.8,-,N/A,,Overcast,170,2013-04-15 08:15:00
3:35 AM,46.4,46.4,100,29.65,2.0,SSE,6.9,-,N/A,,Overcast,160,2013-04-15 08:35:00
3:55 AM,46.4,46.4,100,29.68,1.5,South,6.9,-,N/A,Rain,Rain,190,2013-04-15 08:55:00
4:15 AM,46.4,46.4,100,29.69,1.5,South,6.9,-,0.01,Rain,Light Rain,190,2013-04-15 09:15:00
4:35 AM,46.4,46.4,100,29.72,1.8,SSW,11.5,-,0.01,,Overcast,210,2013-04-15 09:35:00
4:55 AM,46.4,46.4,100,29.70,2.0,South,9.2,-,0.01,,Overcast,190,2013-04-15 09:55:00
5:15 AM,46.4,46.4,100,29.71,3.0,South,10.4,-,N/A,,Overcast,190,2013-04-15 10:15:00
5:35 AM,46.4,46.4,100,29.71,4.0,SSW,11.5,-,N/A,,Overcast,210,2013-04-15 10:35:00
5:55 AM,46.4,46.4,100,29.71,5.0,SSW,9.2,-,N/A,,Scattered Clouds,210,2013-04-15 10:55:00
6:15 AM,46.4,46.4,100,29.71,4.0,SSW,9.2,-,N/A,,Clear,210,2013-04-15 11:15:00
6:35 AM,44.6,44.6,100,29.71,5.0,SSW,8.1,-,N/A,,Clear,200,2013-04-15 11:35:00
6:55 AM,44.6,44.6,100,29.71,4.0,SSW,6.9,-,N/A,,Clear,200,2013-04-15 11:55:00
7:15 AM,44.6,44.6,100,29.72,4.0,South,5.8,-,N/A,,Clear,190,2013-04-15 12:15:00
7:35 AM,46.4,46.4,100,29.74,5.0,South,9.2,-,N/A,,Clear,190,2013-04-15 12:35:00
7:55 AM,46.4,46.4,100,29.75,7.0,SW,8.1,-,N/A,,Clear,220,2013-04-15 12:55:00
8:15 AM,48.2,48.2,100,29.75,5.0,South,9.2,-,N/A,,Scattered Clouds,190,2013-04-15 13:15:00
8:35 AM,50.0,50.0,100,29.74,10.0,SSW,11.5,-,N/A,,Clear,210,2013-04-15 13:35:00
8:55 AM,50.0,46.4,87,29.74,10.0,SSW,10.4,-,N/A,,Scattered Clouds,200,2013-04-15 13:55:00
9:15 AM,51.8,46.4,82,29.74,10.0,South,13.8,-,N/A,,Clear,190,2013-04-15 14:15:00
9:35 AM,51.8,44.6,76,29.75,10.0,SSW,16.1,-,N/A,,Scattered Clouds,200,2013-04-15 14:35:00
9:55 AM,51.8,46.4,82,29.75,10.0,SSW,16.1,-,N/A,,Scattered Clouds,200,2013-04-15 14:55:00
10:15 AM,53.6,46.4,77,29.75,10.0,South,18.4,23.0,N/A,,Overcast,190,2013-04-15 15:15:00
10:35 AM,53.6,46.4,77,29.75,10.0,SSW,18.4,-,N/A,,Mostly Cloudy,200,2013-04-15 15:35:00
10:55 AM,55.4,37.4,51,29.75,10.0,SSW,20.7,-,N/A,,Mostly Cloudy,200,2013-04-15 15:55:00
11:15 AM,55.4,39.2,54,29.75,10.0,SW,19.6,25.3,N/A,,Mostly Cloudy,220,2013-04-15 16:15:00
11:35 AM,55.4,35.6,47,29.77,10.0,SW,23.0,29.9,N/A,,Mostly Cloudy,220,2013-04-15 16:35:00
11:55 AM,57.2,35.6,44,29.77,10.0,SW,23.0,28.8,N/A,,Scattered Clouds,230,2013-04-15 16:55:00
12:15 PM,55.4,33.8,44,29.76,10.0,SW,19.6,27.6,N/A,,Scattered Clouds,220,2013-04-15 17:15:00
12:35 PM,57.2,33.8,41,29.77,10.0,SW,19.6,29.9,N/A,,Mostly Cloudy,220,2013-04-15 17:35:00
12:55 PM,55.4,35.6,47,29.77,10.0,SW,19.6,28.8,N/A,,Overcast,230,2013-04-15 17:55:00
1:15 PM,55.4,33.8,44,29.78,10.0,SW,21.9,25.3,N/A,,Overcast,230,2013-04-15 18:15:00
1:35 PM,55.4,33.8,44,29.79,10.0,SW,18.4,25.3,N/A,,Overcast,230,2013-04-15 18:35:00
1:55 PM,55.4,32.0,41,29.80,10.0,WSW,26.5,32.2,N/A,,Overcast,250,2013-04-15 18:55:00
2:15 PM,53.6,32.0,44,29.81,10.0,WSW,25.3,31.1,N/A,,Mostly Cloudy,240,2013-04-15 19:15:00
2:35 PM,53.6,30.2,41,29.81,10.0,WSW,17.3,23.0,N/A,,Scattered Clouds,240,2013-04-15 19:35:00
2:55 PM,51.8,30.2,44,29.82,10.0,WSW,17.3,26.5,N/A,,Mostly Cloudy,250,2013-04-15 19:55:00
3:15 PM,50.0,33.8,54,29.83,10.0,West,18.4,21.9,N/A,,Mostly Cloudy,260,2013-04-15 20:15:00
3:35 PM,46.4,35.6,66,29.86,10.0,WSW,18.4,25.3,N/A,Rain,Light Rain,240,2013-04-15 20:35:00
3:55 PM,44.6,37.4,76,29.87,10.0,WSW,19.6,26.5,N/A,Rain,Rain,240,2013-04-15 20:55:00
4:15 PM,44.6,37.4,76,29.87,10.0,WSW,19.6,24.2,N/A,,Drizzle,240,2013-04-15 21:15:00
4:35 PM,42.8,37.4,81,29.88,10.0,SW,15.0,20.7,N/A,Rain,Rain,230,2013-04-15 21:35:00
5:15 PM,42.8,37.4,81,29.89,7.0,SW,15.0,27.6,0.01,Rain,Light Rain,220,2013-04-15 22:15:00
5:35 PM,42.8,37.4,81,29.87,7.0,SW,10.4,-,0.02,Rain,Light Rain,230,2013-04-15 22:35:00
5:55 PM,42.8,37.4,81,29.85,10.0,WSW,11.5,-,0.02,,Overcast,250,2013-04-15 22:55:00
6:15 PM,42.8,35.6,76,29.86,10.0,SSW,12.7,-,N/A,,Scattered Clouds,210,2013-04-15 23:15:00
6:35 PM,42.8,35.6,76,29.85,10.0,SW,9.2,-,N/A,,Clear,220,2013-04-15 23:35:00
6:55 PM,42.8,35.6,76,29.86,10.0,SSW,10.4,-,N/A,,Clear,210,2013-04-15 23:55:00
7:15 PM,42.8,35.6,76,29.85,10.0,SSW,9.2,-,N/A,,Scattered Clouds,210,2013-04-16 00:15:00
7:35 PM,41.0,35.6,81,29.86,10.0,SW,8.1,-,N/A,,Scattered Clouds,220,2013-04-16 00:35:00
7:55 PM,41.0,35.6,81,29.87,10.0,SW,9.2,-,N/A,,Mostly Cloudy,230,2013-04-16 00:55:00
8:15 PM,41.0,35.6,81,29.88,10.0,SW,9.2,-,N/A,,Mostly Cloudy,220,2013-04-16 01:15:00
8:35 PM,41.0,35.6,81,29.89,10.0,SSW,5.8,-,N/A,,Scattered Clouds,210,2013-04-16 01:35:00
8:55 PM,41.0,35.6,81,29.89,10.0,SW,5.8,-,N/A,,Scattered Clouds,220,2013-04-16 01:55:00
9:15 PM,41.0,35.6,81,29.90,10.0,SW,6.9,-,N/A,,Scattered Clouds,230,2013-04-16 02:15:00
9:35 PM,41.0,35.6,81,29.92,10.0,SW,6.9,-,N/A,,Scattered Clouds,230,2013-04-16 02:35:00
9:55 PM,41.0,35.6,81,29.93,10.0,SW,5.8,-,N/A,,Mostly Cloudy,220,2013-04-16 02:55:00
10:15 PM,41.0,35.6,81,29.95,10.0,SW,8.1,-,N/A,,Mostly Cloudy,230,2013-04-16 03:15:00
10:35 PM,41.0,35.6,81,29.95,10.0,SW,5.8,-,N/A,,Mostly Cloudy,220,2013-04-16 03:35:00
10:55 PM,41.0,35.6,81,29.95,10.0,SW,5.8,-,N/A,,Scattered Clouds,220,2013-04-16 03:55:00
11:15 PM,41.0,35.6,81,29.95,10.0,SW,5.8,-,N/A,,Mostly Cloudy,230,2013-04-16 04:15:00
11:35 PM,41.0,35.6,81,29.96,10.0,SW,5.8,-,N/A,,Mostly Cloudy,230,2013-04-16 04:35:00
11:55 PM,39.2,35.6,87,29.95,10.0,Calm,Calm,-,N/A,,Scattered Clouds,0,2013-04-16 04:55:00